0605700051,1995,10,01,00,0.045
0605700051,1995,10,01,01,0.043
0605700051,1995,10,01,02,0.042
0605700051,1995,10,01,03,0.042
0605700051,1995,10,01,04,0.041
0605700051,1995,10,01,05,0.039
0605700051,1995,10,01,06,0.039
0605700051,1995,10,01,07,0.036
0605700051,1995,10,01,08,0.033
0605700051,1995,10,01,09,0.036
0605700051,1995,10,01,10,0.037
0605700051,1995,10,01,11,0.04
0605700051,1995,10,01,12,0.044
0605700051,1995,10,01,13,0.047
0605700051,1995,10,01,14,0.045
0605700051,1995,10,01,15,0.048
0605700051,1995,10,01,16,0.049
0605700051,1995,10,01,17,0.046
0605700051,1995,10,01,18,0.045
0605700051,1995,10,01,19,0.046
0605700051,1995,10,01,20,0.044
0605700051,1995,10,01,21,0.04
0605700051,1995,10,01,22,0.043
0605700051,1995,10,01,23,0.042
0605700051,1995,10,02,00,0.041
0605700051,1995,10,02,01,0.041
0605700051,1995,10,02,02,0.04
0605700051,1995,10,02,03,0.041
0605700051,1995,10,02,04,0.042
0605700051,1995,10,02,05,0.041
0605700051,1995,10,02,06,0.037
0605700051,1995,10,02,07,0.034
0605700051,1995,10,02,08,0.027
0605700051,1995,10,02,09,0.035
0605700051,1995,10,02,10,0.044
0605700051,1995,10,02,11,0.046
0605700051,1995,10,02,12,0.049
0605700051,1995,10,02,13,0.051
0605700051,1995,10,02,14,0.054
0605700051,1995,10,02,15,0.058
0605700051,1995,10,02,16,0.058
0605700051,1995,10,02,17,0.056
0605700051,1995,10,02,18,0.057
0605700051,1995,10,02,19,0.06
0605700051,1995,10,02,20,0.063
0605700051,1995,10,02,21,0.065
0605700051,1995,10,02,22,0.063
0605700051,1995,10,02,23,0.059
0605700051,1995,10,03,00,0.054
0605700051,1995,10,03,01,0.055
0605700051,1995,10,03,02,0.056
0605700051,1995,10,03,03,0.05
0605700051,1995,10,03,04,0.049
0605700051,1995,10,03,05,0.05
0605700051,1995,10,03,06,0.05
0605700051,1995,10,03,07,0.048
0605700051,1995,10,03,08,0.049
0605700051,1995,10,03,09,0.056
0605700051,1995,10,03,10,0.062
0605700051,1995,10,03,11,0.063
0605700051,1995,10,03,12,0.062
0605700051,1995,10,03,13,0.067
0605700051,1995,10,03,14,0.056
0605700051,1995,10,03,15,0.044
0605700051,1995,10,03,16,0.044
0605700051,1995,10,03,17,0.046
0605700051,1995,10,03,18,0.047
0605700051,1995,10,03,19,0.046
0605700051,1995,10,03,20,0.042
0605700051,1995,10,03,21,0.04
0605700051,1995,10,03,22,0.043
0605700051,1995,10,03,23,0.045
0605700051,1995,10,04,00,0.042
0605700051,1995,10,04,01,0.048
0605700051,1995,10,04,02,0.046
0605700051,1995,10,04,03,0.045
0605700051,1995,10,04,04,0.041
0605700051,1995,10,04,05,0.042
0605700051,1995,10,04,06,0.04
0605700051,1995,10,04,07,0.037
0605700051,1995,10,04,08,0.035
0605700051,1995,10,04,09,0.034
0605700051,1995,10,04,10,0.035
0605700051,1995,10,04,11,0.049
0605700051,1995,10,04,12,0.051
0605700051,1995,10,04,13,0.049
0605700051,1995,10,04,14,0.053
0605700051,1995,10,04,15,0.051
0605700051,1995,10,04,16,0.049
0605700051,1995,10,04,17,0.048
0605700051,1995,10,04,18,0.044
0605700051,1995,10,04,19,0.045
0605700051,1995,10,04,20,0.048
0605700051,1995,10,04,21,0.048
0605700051,1995,10,04,22,0.043
0605700051,1995,10,04,23,0.048
0605700051,1995,10,05,00,0.049
0605700051,1995,10,05,01,0.048
0605700051,1995,10,05,02,0.049
0605700051,1995,10,05,03,0.048
0605700051,1995,10,05,04,0.049
0605700051,1995,10,05,05,0.049
0605700051,1995,10,05,06,0.045
0605700051,1995,10,05,07,0.039
0605700051,1995,10,05,08,0.03
0605700051,1995,10,05,09,0.042
0605700051,1995,10,05,10,0.046
0605700051,1995,10,05,11,0.059
0605700051,1995,10,05,12,0.062
0605700051,1995,10,05,13,0.062
0605700051,1995,10,05,14,0.063
0605700051,1995,10,05,15,0.065
0605700051,1995,10,05,16,0.065
0605700051,1995,10,05,17,0.065
0605700051,1995,10,05,18,0.053
0605700051,1995,10,05,19,0.069
0605700051,1995,10,05,20,0.069
0605700051,1995,10,05,21,0.064
0605700051,1995,10,05,22,0.064
0605700051,1995,10,05,23,0.068
0605700051,1995,10,06,00,0.063
0605700051,1995,10,06,01,0.064
0605700051,1995,10,06,02,0.067
0605700051,1995,10,06,03,0.065
0605700051,1995,10,06,04,0.064
0605700051,1995,10,06,05,0.064
0605700051,1995,10,06,06,0.06
0605700051,1995,10,06,07,0.054
0605700051,1995,10,06,08,0.051
0605700051,1995,10,06,09,0.065
0605700051,1995,10,06,10,0.068
0605700051,1995,10,06,11,0.073
0605700051,1995,10,06,12,0.076
0605700051,1995,10,06,13,0.076
0605700051,1995,10,06,14,0.082
0605700051,1995,10,06,15,0.079
0605700051,1995,10,06,16,0.078
0605700051,1995,10,06,17,0.069
0605700051,1995,10,06,18,0.074
0605700051,1995,10,06,19,0.074
0605700051,1995,10,06,20,0.07
0605700051,1995,10,06,21,0.073
0605700051,1995,10,06,22,0.076
0605700051,1995,10,06,23,0.075
0605700051,1995,10,07,00,0.079
0605700051,1995,10,07,01,0.075
0605700051,1995,10,07,02,0.077
0605700051,1995,10,07,03,0.079
0605700051,1995,10,07,04,0.078
0605700051,1995,10,07,05,0.075
0605700051,1995,10,07,06,0.076
0605700051,1995,10,07,07,0.068
0605700051,1995,10,07,08,0.065
0605700051,1995,10,07,09,0.08
0605700051,1995,10,07,10,0.081
0605700051,1995,10,07,11,0.082
0605700051,1995,10,07,12,0.079
0605700051,1995,10,07,13,0.068
0605700051,1995,10,07,14,0.068
0605700051,1995,10,07,15,0.085
0605700051,1995,10,07,16,0.088
0605700051,1995,10,07,17,0.087
0605700051,1995,10,07,18,0.091
0605700051,1995,10,07,19,0.088
0605700051,1995,10,07,20,0.082
0605700051,1995,10,07,21,0.078
0605700051,1995,10,07,22,0.077
0605700051,1995,10,07,23,0.085
0605700051,1995,10,08,00,0.078
0605700051,1995,10,08,01,0.074
0605700051,1995,10,08,02,0.067
0605700051,1995,10,08,03,0.077
0605700051,1995,10,08,04,0.077
0605700051,1995,10,08,05,0.076
0605700051,1995,10,08,06,0.076
0605700051,1995,10,08,07,0.076
0605700051,1995,10,08,08,0.061
0605700051,1995,10,08,09,0.064
0605700051,1995,10,08,10,0.067
0605700051,1995,10,08,11,0.067
0605700051,1995,10,08,12,0.069
0605700051,1995,10,08,13,0.067
0605700051,1995,10,08,14,0.069
0605700051,1995,10,08,15,0.068
0605700051,1995,10,08,16,0.066
0605700051,1995,10,08,17,0.064
0605700051,1995,10,08,18,0.076
0605700051,1995,10,08,19,0.073
0605700051,1995,10,08,20,0.075
0605700051,1995,10,08,21,0.065
0605700051,1995,10,08,22,0.061
0605700051,1995,10,08,23,0.061
0605700051,1995,10,09,00,0.063
0605700051,1995,10,09,01,0.068
0605700051,1995,10,09,02,0.066
0605700051,1995,10,09,03,0.068
0605700051,1995,10,09,04,0.063
0605700051,1995,10,09,05,0.062
0605700051,1995,10,09,06,0.059
0605700051,1995,10,09,07,0.056
0605700051,1995,10,09,08,0.037
0605700051,1995,10,09,09,0.053
0605700051,1995,10,09,10,0.059
0605700051,1995,10,09,11,0.063
0605700051,1995,10,09,12,0.064
0605700051,1995,10,09,13,0.069
0605700051,1995,10,09,14,0.073
0605700051,1995,10,09,15,0.072
0605700051,1995,10,09,16,0.069
0605700051,1995,10,09,17,0.067
0605700051,1995,10,09,18,0.067
0605700051,1995,10,09,19,0.071
0605700051,1995,10,09,20,0.07
0605700051,1995,10,09,21,0.069
0605700051,1995,10,09,22,0.07
0605700051,1995,10,09,23,0.07
0605700051,1995,10,10,00,0.07
0605700051,1995,10,10,01,0.07
0605700051,1995,10,10,02,0.067
0605700051,1995,10,10,03,0.067
0605700051,1995,10,10,04,0.063
0605700051,1995,10,10,05,0.063
0605700051,1995,10,10,06,0.065
0605700051,1995,10,10,07,0.06
0605700051,1995,10,10,08,0.032
0605700051,1995,10,10,09,0.05
0605700051,1995,10,10,10,0.06
0605700051,1995,10,10,11,0.071
0605700051,1995,10,10,12,0.076
0605700051,1995,10,10,13,0.078
0605700051,1995,10,10,14,0.085
0605700051,1995,10,10,15,0.089
0605700051,1995,10,10,16,0.086
0605700051,1995,10,10,17,0.08
0605700051,1995,10,10,18,0.073
0605700051,1995,10,10,19,0.083
0605700051,1995,10,10,20,0.086
0605700051,1995,10,10,21,0.086
0605700051,1995,10,10,22,0.086
0605700051,1995,10,10,23,0.077
0605700051,1995,10,11,00,0.074
0605700051,1995,10,11,01,0.075
0605700051,1995,10,11,02,0.076
0605700051,1995,10,11,03,0.075
0605700051,1995,10,11,04,0.071
0605700051,1995,10,11,05,0.071
0605700051,1995,10,11,06,0.063
0605700051,1995,10,11,07,0.063
0605700051,1995,10,11,08,0.07
0605700051,1995,10,11,09,0.072
0605700051,1995,10,11,10,0.075
0605700051,1995,10,11,11,0.065
0605700051,1995,10,11,12,0.055
0605700051,1995,10,11,13,0.051
0605700051,1995,10,11,14,0.042
0605700051,1995,10,11,15,0.042
0605700051,1995,10,11,16,0.037
0605700051,1995,10,11,17,0.031
0605700051,1995,10,11,18,0.033
0605700051,1995,10,11,19,0.032
0605700051,1995,10,11,20,0.027
0605700051,1995,10,11,21,0.021
0605700051,1995,10,11,22,0.017
0605700051,1995,10,11,23,0.016
0605700051,1995,10,12,00,0.018
0605700051,1995,10,12,01,0.017
0605700051,1995,10,12,02,0.017
0605700051,1995,10,12,03,0.015
0605700051,1995,10,12,04,0.016
0605700051,1995,10,12,05,0.016
0605700051,1995,10,12,06,0.018
0605700051,1995,10,12,07,0.017
0605700051,1995,10,12,08,0.018
0605700051,1995,10,12,09,0.021
0605700051,1995,10,12,10,0.026
0605700051,1995,10,12,11,0.031
0605700051,1995,10,12,12,0.039
0605700051,1995,10,12,13,0.04
0605700051,1995,10,12,14,0.043
0605700051,1995,10,12,15,0.044
0605700051,1995,10,12,16,0.042
0605700051,1995,10,12,17,0.038
0605700051,1995,10,12,18,0.041
0605700051,1995,10,12,19,0.041
0605700051,1995,10,12,20,0.04
0605700051,1995,10,12,21,0.04
0605700051,1995,10,12,22,0.04
0605700051,1995,10,12,23,0.039
0605700051,1995,10,13,00,0.038
0605700051,1995,10,13,01,0.04
0605700051,1995,10,13,02,0.04
0605700051,1995,10,13,03,0.035
0605700051,1995,10,13,04,0.036
0605700051,1995,10,13,05,0.037
0605700051,1995,10,13,06,0.04
0605700051,1995,10,13,07,0.036
0605700051,1995,10,13,08,0.025
0605700051,1995,10,13,09,0.04
0605700051,1995,10,13,10,0.044
0605700051,1995,10,13,11,0.045
0605700051,1995,10,13,12,0.047
0605700051,1995,10,13,13,0.052
0605700051,1995,10,13,14,0.056
0605700051,1995,10,13,15,0.059
0605700051,1995,10,13,16,0.061
0605700051,1995,10,13,17,0.06
0605700051,1995,10,13,18,0.063
0605700051,1995,10,13,19,0.06
0605700051,1995,10,13,20,0.048
0605700051,1995,10,13,21,0.042
0605700051,1995,10,13,22,0.043
0605700051,1995,10,13,23,0.045
0605700051,1995,10,14,00,0.044
0605700051,1995,10,14,01,0.044
0605700051,1995,10,14,02,0.044
0605700051,1995,10,14,03,0.045
0605700051,1995,10,14,04,0.046
0605700051,1995,10,14,05,0.047
0605700051,1995,10,14,06,0.047
0605700051,1995,10,14,07,0.047
0605700051,1995,10,14,08,0.036
0605700051,1995,10,14,09,0.042
0605700051,1995,10,14,10,0.049
0605700051,1995,10,14,11,0.053
0605700051,1995,10,14,12,0.056
0605700051,1995,10,14,13,0.061
0605700051,1995,10,14,14,0.061
0605700051,1995,10,14,15,0.062
0605700051,1995,10,14,16,0.061
0605700051,1995,10,14,17,0.061
0605700051,1995,10,14,18,0.063
0605700051,1995,10,14,19,0.062
0605700051,1995,10,14,20,0.065
0605700051,1995,10,14,21,0.066
0605700051,1995,10,14,22,0.065
0605700051,1995,10,14,23,0.062
0605700051,1995,10,15,00,0.061
0605700051,1995,10,15,01,0.06
0605700051,1995,10,15,02,0.06
0605700051,1995,10,15,03,0.062
0605700051,1995,10,15,04,0.059
0605700051,1995,10,15,05,0.059
0605700051,1995,10,15,06,0.054
0605700051,1995,10,15,07,0.049
0605700051,1995,10,15,08,0.043
0605700051,1995,10,15,09,0.057
0605700051,1995,10,15,10,0.06
0605700051,1995,10,15,11,0.063
0605700051,1995,10,15,12,0.065
0605700051,1995,10,15,13,0.067
0605700051,1995,10,15,14,0.071
0605700051,1995,10,15,15,0.071
0605700051,1995,10,15,16,0.067
0605700051,1995,10,15,17,0.061
0605700051,1995,10,15,18,0.055
0605700051,1995,10,15,19,0.055
0605700051,1995,10,15,20,0.054
0605700051,1995,10,15,21,0.052
0605700051,1995,10,15,22,0.052
0605700051,1995,10,15,23,0.05
0605700051,1995,10,16,00,0.054
0605700051,1995,10,16,01,0.053
0605700051,1995,10,16,02,0.053
0605700051,1995,10,16,03,0.053
0605700051,1995,10,16,04,0.053
0605700051,1995,10,16,05,0.051
0605700051,1995,10,16,06,0.046
0605700051,1995,10,16,07,0.041
0605700051,1995,10,16,08,0.043
0605700051,1995,10,16,09,0.044
0605700051,1995,10,16,10,0.042
0605700051,1995,10,16,11,0.044
0605700051,1995,10,16,12,0.043
0605700051,1995,10,16,13,0.045
0605700051,1995,10,16,14,0.047
0605700051,1995,10,16,15,0.049
0605700051,1995,10,16,16,0.048
0605700051,1995,10,16,17,0.048
0605700051,1995,10,16,18,0.051
0605700051,1995,10,16,19,0.052
0605700051,1995,10,16,20,0.048
0605700051,1995,10,16,21,0.046
0605700051,1995,10,16,22,0.047
0605700051,1995,10,16,23,0.044
0605700051,1995,10,17,00,0.045
0605700051,1995,10,17,01,0.047
0605700051,1995,10,17,02,0.046
0605700051,1995,10,17,03,0.046
0605700051,1995,10,17,04,0.046
0605700051,1995,10,17,05,0.044
0605700051,1995,10,17,06,0.036
0605700051,1995,10,17,07,0.029
0605700051,1995,10,17,08,0.022
0605700051,1995,10,17,09,0.034
0605700051,1995,10,17,10,0.043
0605700051,1995,10,17,11,0.051
0605700051,1995,10,17,12,0.055
0605700051,1995,10,17,13,0.058
0605700051,1995,10,17,14,0.065
0605700051,1995,10,17,15,0.069
0605700051,1995,10,17,16,0.07
0605700051,1995,10,17,17,0.065
0605700051,1995,10,17,18,0.063
0605700051,1995,10,17,19,0.072
0605700051,1995,10,17,20,0.073
0605700051,1995,10,17,21,0.071
0605700051,1995,10,17,22,0.068
0605700051,1995,10,17,23,0.064
0605700051,1995,10,18,00,0.067
0605700051,1995,10,18,01,0.065
0605700051,1995,10,18,02,0.058
0605700051,1995,10,18,03,0.054
0605700051,1995,10,18,04,0.052
0605700051,1995,10,18,05,0.048
0605700051,1995,10,18,06,0.04
0605700051,1995,10,18,07,0.026
0605700051,1995,10,18,08,0.022
0605700051,1995,10,18,09,0.024
0605700051,1995,10,18,10,0.027
0605700051,1995,10,18,11,0.029
0605700051,1995,10,18,12,0.033
0605700051,1995,10,18,13,0.053
0605700051,1995,10,18,14,0.052
0605700051,1995,10,18,15,0.046
0605700051,1995,10,18,16,0.045
0605700051,1995,10,18,17,0.044
0605700051,1995,10,18,18,0.043
0605700051,1995,10,18,19,0.044
0605700051,1995,10,18,20,0.045
0605700051,1995,10,18,21,0.043
0605700051,1995,10,18,22,0.037
0605700051,1995,10,18,23,0.036
0605700051,1995,10,19,00,0.036
0605700051,1995,10,19,01,0.037
0605700051,1995,10,19,02,0.037
0605700051,1995,10,19,03,0.037
0605700051,1995,10,19,04,0.037
0605700051,1995,10,19,05,0.037
0605700051,1995,10,19,06,0.03
0605700051,1995,10,19,07,0.035
0605700051,1995,10,19,08,0.03
0605700051,1995,10,19,09,0.03
0605700051,1995,10,19,10,0.04
0605700051,1995,10,19,11,0.047
0605700051,1995,10,19,12,0.056
0605700051,1995,10,19,13,0.061
0605700051,1995,10,19,14,0.062
0605700051,1995,10,19,15,0.063
0605700051,1995,10,19,16,0.064
0605700051,1995,10,19,17,0.067
0605700051,1995,10,19,18,0.069
0605700051,1995,10,19,19,0.064
0605700051,1995,10,19,20,0.064
0605700051,1995,10,19,21,0.064
0605700051,1995,10,19,22,0.064
0605700051,1995,10,19,23,0.059
0605700051,1995,10,20,00,0.054
0605700051,1995,10,20,01,0.052
0605700051,1995,10,20,02,0.053
0605700051,1995,10,20,03,0.051
0605700051,1995,10,20,04,0.049
0605700051,1995,10,20,05,0.048
0605700051,1995,10,20,06,0.046
0605700051,1995,10,20,07,0.047
0605700051,1995,10,20,08,0.033
0605700051,1995,10,20,09,0.046
0605700051,1995,10,20,10,0.054
0605700051,1995,10,20,11,0.059
0605700051,1995,10,20,12,0.062
0605700051,1995,10,20,13,0.059
0605700051,1995,10,20,14,0.061
0605700051,1995,10,20,15,0.063
0605700051,1995,10,20,16,0.062
0605700051,1995,10,20,17,0.062
0605700051,1995,10,20,18,0.066
0605700051,1995,10,20,19,0.068
0605700051,1995,10,20,20,0.063
0605700051,1995,10,20,21,0.061
0605700051,1995,10,20,22,0.061
0605700051,1995,10,20,23,0.063
0605700051,1995,10,21,00,0.063
0605700051,1995,10,21,01,0.062
0605700051,1995,10,21,02,0.062
0605700051,1995,10,21,03,0.063
0605700051,1995,10,21,04,0.065
0605700051,1995,10,21,05,0.064
0605700051,1995,10,21,06,0.061
0605700051,1995,10,21,07,0.056
0605700051,1995,10,21,08,0.052
0605700051,1995,10,21,09,0.055
0605700051,1995,10,21,10,0.057
0605700051,1995,10,21,11,0.059
0605700051,1995,10,21,12,0.066
0605700051,1995,10,21,13,0.067
0605700051,1995,10,21,14,0.059
0605700051,1995,10,21,15,0.046
0605700051,1995,10,21,16,0.044
0605700051,1995,10,21,17,0.041
0605700051,1995,10,21,18,0.042
0605700051,1995,10,21,19,0.044
0605700051,1995,10,21,20,0.045
0605700051,1995,10,21,21,0.044
0605700051,1995,10,21,22,0.043
0605700051,1995,10,21,23,0.041
0605700051,1995,10,22,00,0.041
0605700051,1995,10,22,01,0.04
0605700051,1995,10,22,02,0.041
0605700051,1995,10,22,03,0.04
0605700051,1995,10,22,04,0.041
0605700051,1995,10,22,05,0.04
0605700051,1995,10,22,06,0.04
0605700051,1995,10,22,07,0.04
0605700051,1995,10,22,08,0.039
0605700051,1995,10,22,09,0.042
0605700051,1995,10,22,10,0.042
0605700051,1995,10,22,11,0.042
0605700051,1995,10,22,12,0.046
0605700051,1995,10,22,13,0.045
0605700051,1995,10,22,14,0.046
0605700051,1995,10,22,15,0.049
0605700051,1995,10,22,16,0.049
0605700051,1995,10,22,17,0.043
0605700051,1995,10,22,18,0.042
0605700051,1995,10,22,19,0.043
0605700051,1995,10,22,20,0.044
0605700051,1995,10,22,21,0.04
0605700051,1995,10,22,22,0.039
0605700051,1995,10,22,23,0.042
0605700051,1995,10,23,00,0.042
0605700051,1995,10,23,01,0.044
0605700051,1995,10,23,02,0.047
0605700051,1995,10,23,03,0.049
0605700051,1995,10,23,04,0.048
0605700051,1995,10,23,05,0.047
0605700051,1995,10,23,06,0.043
0605700051,1995,10,23,07,0.045
0605700051,1995,10,23,16,0.057
0605700051,1995,10,23,17,0.055
0605700051,1995,10,23,18,0.058
0605700051,1995,10,23,19,0.057
0605700051,1995,10,23,20,0.059
0605700051,1995,10,23,21,0.058
0605700051,1995,10,23,22,0.056
0605700051,1995,10,23,23,0.053
0605700051,1995,10,24,00,0.05
0605700051,1995,10,24,01,0.049
0605700051,1995,10,24,02,0.05
0605700051,1995,10,24,03,0.047
0605700051,1995,10,24,04,0.048
0605700051,1995,10,24,05,0.048
0605700051,1995,10,24,06,0.046
0605700051,1995,10,24,07,0.045
0605700051,1995,10,24,08,0.038
0605700051,1995,10,24,09,0.047
0605700051,1995,10,24,10,0.05
0605700051,1995,10,24,11,0.051
0605700051,1995,10,24,12,0.054
0605700051,1995,10,24,13,0.055
0605700051,1995,10,24,14,0.057
0605700051,1995,10,24,15,0.057
0605700051,1995,10,24,16,0.056
0605700051,1995,10,24,17,0.048
0605700051,1995,10,24,18,0.056
0605700051,1995,10,24,19,0.058
0605700051,1995,10,24,20,0.058
0605700051,1995,10,24,21,0.056
0605700051,1995,10,24,22,0.056
0605700051,1995,10,24,23,0.056
0605700051,1995,10,25,00,0.057
0605700051,1995,10,25,01,0.06
0605700051,1995,10,25,02,0.059
0605700051,1995,10,25,03,0.055
0605700051,1995,10,25,04,0.055
0605700051,1995,10,25,05,0.056
0605700051,1995,10,25,06,0.057
0605700051,1995,10,25,07,0.049
0605700051,1995,10,25,08,0.044
0605700051,1995,10,25,09,0.046
0605700051,1995,10,25,10,0.052
0605700051,1995,10,25,11,0.058
0605700051,1995,10,25,12,0.06
0605700051,1995,10,25,13,0.064
0605700051,1995,10,25,14,0.066
0605700051,1995,10,25,15,0.066
0605700051,1995,10,25,16,0.059
0605700051,1995,10,25,17,0.06
0605700051,1995,10,25,18,0.062
0605700051,1995,10,25,19,0.065
0605700051,1995,10,25,20,0.068
0605700051,1995,10,25,21,0.067
0605700051,1995,10,25,22,0.069
0605700051,1995,10,25,23,0.066
0605700051,1995,10,26,00,0.066
0605700051,1995,10,26,01,0.06
0605700051,1995,10,26,02,0.057
0605700051,1995,10,26,03,0.053
0605700051,1995,10,26,04,0.051
0605700051,1995,10,26,05,0.048
0605700051,1995,10,26,06,0.043
0605700051,1995,10,26,07,0.041
0605700051,1995,10,26,08,0.037
0605700051,1995,10,26,09,0.033
0605700051,1995,10,26,10,0.036
0605700051,1995,10,26,11,0.035
0605700051,1995,10,26,12,0.032
0605700051,1995,10,26,13,0.044
0605700051,1995,10,26,14,0.053
0605700051,1995,10,26,15,0.06
0605700051,1995,10,26,16,0.059
0605700051,1995,10,26,17,0.054
0605700051,1995,10,26,18,0.054
0605700051,1995,10,26,19,0.056
0605700051,1995,10,26,20,0.054
0605700051,1995,10,26,21,0.054
0605700051,1995,10,26,22,0.051
0605700051,1995,10,26,23,0.041
0605700051,1995,10,27,00,0.035
0605700051,1995,10,27,01,0.029
0605700051,1995,10,27,02,0.028
0605700051,1995,10,27,03,0.027
0605700051,1995,10,27,04,0.03
0605700051,1995,10,27,05,0.028
0605700051,1995,10,27,06,0.026
0605700051,1995,10,27,07,0.022
0605700051,1995,10,27,08,0.021
0605700051,1995,10,27,09,0.021
0605700051,1995,10,27,10,0.028
0605700051,1995,10,27,11,0.037
0605700051,1995,10,27,12,0.043
0605700051,1995,10,27,13,0.048
0605700051,1995,10,27,14,0.044
0605700051,1995,10,27,15,0.033
0605700051,1995,10,27,16,0.033
0605700051,1995,10,27,17,0.03
0605700051,1995,10,27,18,0.045
0605700051,1995,10,27,19,0.045
0605700051,1995,10,27,20,0.05
0605700051,1995,10,27,21,0.049
0605700051,1995,10,27,22,0.054
0605700051,1995,10,27,23,0.052
0605700051,1995,10,28,00,0.048
0605700051,1995,10,28,01,0.043
0605700051,1995,10,28,02,0.042
0605700051,1995,10,28,03,0.045
0605700051,1995,10,28,04,0.047
0605700051,1995,10,28,05,0.039
0605700051,1995,10,28,06,0.038
0605700051,1995,10,28,07,0.039
0605700051,1995,10,28,08,0.036
0605700051,1995,10,28,09,0.042
0605700051,1995,10,28,10,0.051
0605700051,1995,10,28,11,0.056
0605700051,1995,10,28,12,0.058
0605700051,1995,10,28,13,0.058
0605700051,1995,10,28,14,0.06
0605700051,1995,10,28,15,0.066
0605700051,1995,10,28,16,0.068
0605700051,1995,10,28,17,0.07
0605700051,1995,10,28,18,0.07
0605700051,1995,10,28,19,0.062
0605700051,1995,10,28,20,0.056
0605700051,1995,10,28,21,0.06
0605700051,1995,10,28,22,0.063
0605700051,1995,10,28,23,0.062
0605700051,1995,10,29,00,0.064
0605700051,1995,10,29,01,0.058
0605700051,1995,10,29,02,0.053
0605700051,1995,10,29,03,0.056
0605700051,1995,10,29,04,0.055
0605700051,1995,10,29,05,0.057
0605700051,1995,10,29,06,0.052
0605700051,1995,10,29,07,0.049
0605700051,1995,10,29,08,0.044
0605700051,1995,10,29,09,0.049
0605700051,1995,10,29,10,0.055
0605700051,1995,10,29,11,0.055
0605700051,1995,10,29,12,0.055
0605700051,1995,10,29,13,0.062
0605700051,1995,10,29,14,0.064
0605700051,1995,10,29,15,0.063
0605700051,1995,10,29,16,0.063
0605700051,1995,10,29,17,0.062
0605700051,1995,10,29,18,0.064
0605700051,1995,10,29,19,0.067
0605700051,1995,10,29,20,0.071
0605700051,1995,10,29,21,0.069
0605700051,1995,10,29,22,0.062
0605700051,1995,10,29,23,0.06
0605700051,1995,10,30,00,0.063
0605700051,1995,10,30,01,0.064
0605700051,1995,10,30,02,0.069
0605700051,1995,10,30,03,0.065
0605700051,1995,10,30,04,0.066
0605700051,1995,10,30,05,0.065
0605700051,1995,10,30,06,0.054
0605700051,1995,10,30,07,0.046
0605700051,1995,10,30,08,0.034
0605700051,1995,10,30,09,0.043
0605700051,1995,10,30,10,0.053
0605700051,1995,10,30,11,0.06
0605700051,1995,10,30,12,0.06
0605700051,1995,10,30,13,0.063
0605700051,1995,10,30,14,0.067
0605700051,1995,10,30,15,0.07
0605700051,1995,10,31,00,0.059
0605700051,1995,10,31,01,0.058
0605700051,1995,10,31,02,0.057
0605700051,1995,10,31,03,0.052
0605700051,1995,10,31,04,0.049
0605700051,1995,10,31,05,0.045
0605700051,1995,10,31,06,0.031
0605700051,1995,10,31,07,0.028
0605700051,1995,10,31,08,0.032
0605700051,1995,10,31,09,0.028
0605700051,1995,10,31,10,0.039
0605700051,1995,10,31,11,0.044
0605700051,1995,10,31,12,0.045
0605700051,1995,10,31,13,0.045
0605700051,1995,10,31,14,0.043
0605700051,1995,10,31,15,0.04
0605700051,1995,10,31,16,0.033
0605700051,1995,10,31,17,0.011
0605700051,1995,10,31,18,0.027
0605700051,1995,10,31,19,0.026
0605700051,1995,10,31,20,0.019
0605700051,1995,10,31,21,0.031
0605700051,1995,10,31,22,0.037
0605700051,1995,10,31,23,0.03
0605700051,1995,11,01,00,0.03
0605700051,1995,11,01,01,0.03
0605700051,1995,11,01,02,0.027
0605700051,1995,11,01,03,0.029
0605700051,1995,11,01,04,0.027
0605700051,1995,11,01,05,0.03
0605700051,1995,11,01,06,0.035
0605700051,1995,11,01,07,0.038
0605700051,1995,11,01,08,0.036
0605700051,1995,11,01,09,0.042
0605700051,1995,11,01,10,0.046
0605700051,1995,11,01,11,0.05
0605700051,1995,11,01,12,0.051
0605700051,1995,11,01,13,0.058
0605700051,1995,11,01,14,0.06
0605700051,1995,11,01,15,0.059
0605700051,1995,11,01,16,0.055
0605700051,1995,11,01,17,0.057
0605700051,1995,11,01,18,0.056
0605700051,1995,11,01,19,0.06
0605700051,1995,11,01,20,0.056
0605700051,1995,11,01,21,0.058
0605700051,1995,11,01,22,0.059
0605700051,1995,11,01,23,0.058